Location: Newark
(34.0635°N, 86.7609°W)
Time: 06:31:15
(UTC+00:00)

N. Korean satellite - Pass Details

Date: 22 December 2019
Orbit: 454 x 507 km, 97.2° (Epoch: 27 January)

Event Time Altitude Azimuth Distance (km) Brightness Sun altitude
Rises 22:59:34 0° 172° (S) 2,583 10.5 -4.1°
Reaches altitude 10° 23:01:39 10° 174° (S) 1,698 9.6 -4.4°
Maximum altitude 23:05:18 73° 259° (WSW) 521 6.9 -5.1°
Drops below altitude 10° 23:08:56 10° 345° (NNW) 1,684 9.2 -5.8°
Sets 23:11:00 0° 347° (NNW) 2,560 10.1 -6.2°
